User: anonymous   Login
Location: ??? ???
(33.4974°N, 35.4618°E)
Time: 00:53:19
(UTC+00:00)
Language:

Cosmos 2297 Rocket - Orbit

View from above orbital plane
View from above orbital plane
View from above satellite
View from above satellite

Ground track
Ground track

The orbit data is extracted from the following two-line orbital elements,

1 23405U 94077B   21021.60799879  .00000256  00000-0  15617-3 0  9998
2 23405  70.9842 331.7663 0001755 187.5395 172.5702 14.15233643351477
Epoch (UTC): 21 January 2021 14:35:31
Eccentricity: 0.0001755
inclination: 70.9842°
perigee height: 840 km
apogee height: 843 km
right ascension of ascending node: 331.7663°
argument of perigee: 187.5395°
revolutions per day: 14.15233643
mean anomaly at epoch: 172.5702°
orbit number at epoch: 35147

The dashed part of the orbit path shows where the satellite is in the earth's shadow,  

DLR